Weather History for Mount Pleasant, SC

Change the Weather History Date:

Saturday, December 8, 2012

  Actual Average (KCHS) Record (KCHS)
Temperature  
Mean Temperature 61 °F 52 °F  
Max Temperature 69 °F 63 °F 82 °F (1978)
Min Temperature 53 °F 42 °F 20 °F (1954)
Degree Days  
Heating Degree Days 4 13  
Month to date heating degree days 96  
Since 1 July heating degree days 388  
Cooling Degree Days 0 0  
Month to date cooling degree days 0  
Year to date cooling degree days 2297  
Growing Degree Days 11 (Base 50)    
Moisture  
Dew Point 55 °F    
Average Humidity 92    
Maximum Humidity 100    
Minimum Humidity 64    
Precipitation  
Precipitation 0.00 in 0.09 in 1.72 in (1989)
Month to date precipitation 0.73  
Year to date precipitation 48.65  
Sea Level Pressure  
Sea Level Pressure 30.06 in    
Wind  
Wind Speed 3 mph (NW)    
Max Wind Speed 8 mph    
Max Gust Speed -    
Visibility 4 miles    
Events Fog    
T = Trace of Precipitation, MM = Missing Value Source: NWS Daily Summary

Daily Weather History Graph

Daily Weather History Graph

Search for Another Location

Airport:

Trip Planner

Search our weather history database for the weather conditions in past years. The results will help you decide how hot, cold, wet, or windy it might be!

Date:

Astronomy

Dec. 08, 2012 Rise Set
Actual Time 7:09 AM EST 5:12 PM EST
Civil Twilight 6:42 AM EST 5:39 PM EST
Nautical Twilight 6:11 AM EST 6:10 PM EST
Astronomical Twilight 5:41 AM EST 6:40 PM EST
Moon 1:46 AM EST (12/8) 1:29 PM EST (12/8)
Length of Visible Light 10h 57m
Length of Day
10h 02m
Waning Crescent, 28% of the Moon is Illuminated
Dec 8
Waning Crescent
Dec 13
New
Dec 20
First Quarter
Dec 28
Full
Jan 4
Last Quarter

Hourly Weather History & Observations

Time (EST) Temp. Dew Point Humidity Pressure Visibility Wind Dir Wind Speed Gust Speed Precip Events Conditions
12:15 AM 55.4 °F 55.4 °F 100% 30.02 in 0.2 mi Calm Calm - N/A Fog Fog
12:35 AM 55.4 °F 55.4 °F 100% 30.02 in 0.5 mi NW 4.6 mph - N/A Fog Fog
12:55 AM 55.4 °F 55.4 °F 100% 30.02 in 0.2 mi NNW 4.6 mph - N/A Fog Fog
1:15 AM 55.4 °F 55.4 °F 100% 30.01 in 0.2 mi NNW 4.6 mph - N/A Fog Fog
1:35 AM 55.4 °F 55.4 °F 100% 30.01 in 0.2 mi NNW 4.6 mph - N/A Fog Fog
1:55 AM 55.4 °F 55.4 °F 100% 30.01 in 0.2 mi WNW 5.8 mph - N/A Fog Fog
2:15 AM 55.4 °F 55.4 °F 100% 30.01 in 0.2 mi NNW 4.6 mph - N/A Fog Fog
2:35 AM 55.4 °F 55.4 °F 100% 30.02 in 0.2 mi NNW 3.5 mph - N/A Fog Fog
2:55 AM 53.6 °F 53.6 °F 100% 30.02 in 0.2 mi NNW 4.6 mph - N/A Fog Fog
3:15 AM 53.6 °F 53.6 °F 100% 30.02 in 0.2 mi NW 5.8 mph - N/A Fog Fog
3:55 AM 53.6 °F 53.6 °F 100% 30.02 in 0.2 mi NW 8.1 mph - N/A Fog Fog
4:15 AM 53.6 °F 53.6 °F 100% 30.02 in 0.2 mi NNW 6.9 mph - N/A Fog Fog
4:35 AM 53.6 °F 53.6 °F 100% 30.02 in 0.2 mi North 4.6 mph - N/A Fog Fog
4:55 AM 53.6 °F 53.6 °F 100% 30.03 in 0.2 mi North 4.6 mph - N/A Fog Fog
5:15 AM 53.6 °F 53.6 °F 100% 30.03 in 0.2 mi NNW 4.6 mph - N/A Fog Fog
5:35 AM 53.6 °F 53.6 °F 100% 30.03 in 0.2 mi NW 6.9 mph - N/A Fog Fog
5:55 AM 53.6 °F 53.6 °F 100% 30.04 in 0.2 mi NNW 4.6 mph - N/A Fog Fog
6:15 AM 53.6 °F 53.6 °F 100% 30.04 in 0.5 mi NNW 4.6 mph - N/A Fog Fog
6:35 AM 53.6 °F 53.6 °F 100% 30.05 in 1.8 mi North 3.5 mph - N/A   Overcast
6:55 AM 53.6 °F 53.6 °F 100% 30.06 in 1.0 mi Calm Calm - N/A   Overcast
7:15 AM 53.6 °F 53.6 °F 100% 30.06 in 0.5 mi Calm Calm - N/A Fog Fog
7:35 AM 53.6 °F 53.6 °F 100% 30.06 in 0.2 mi Calm Calm - N/A Fog Fog
7:55 AM 53.6 °F 53.6 °F 100% 30.07 in 0.2 mi Calm Calm - N/A Fog Fog
8:15 AM 53.6 °F 53.6 °F 100% 30.07 in 0.2 mi Calm Calm - N/A Fog Fog
8:35 AM 55.4 °F 55.4 °F 100% 30.08 in 0.2 mi Calm Calm - N/A Fog Fog
8:55 AM 55.4 °F 55.4 °F 100% 30.08 in 0.2 mi Calm Calm - N/A Fog Fog
9:15 AM 55.4 °F 55.4 °F 100% 30.09 in 1.0 mi Calm Calm - N/A   Overcast
9:35 AM 55.4 °F 55.4 °F 100% 30.10 in 2.5 mi Calm Calm - N/A   Overcast
9:55 AM 55.4 °F 55.4 °F 100% 30.10 in 2.0 mi Calm Calm - N/A   Overcast
10:15 AM 55.4 °F 55.4 °F 100% 30.10 in 2.0 mi Calm Calm - N/A   Overcast
10:35 AM 55.4 °F 55.4 °F 100% 30.10 in 3.0 mi West 4.6 mph - N/A   Overcast
10:55 AM 57.2 °F 55.4 °F 94% 30.10 in 5.0 mi WNW 5.8 mph - N/A   Mostly Cloudy
11:15 AM 59.0 °F 55.4 °F 88% 30.09 in 6.0 mi West 3.5 mph - N/A   Partly Cloudy
11:35 AM 62.6 °F 55.4 °F 77% 30.08 in 5.0 mi WNW 3.5 mph - N/A   Haze
11:55 AM 64.4 °F 55.4 °F 73% 30.07 in 5.0 mi NW 5.8 mph - N/A   Haze
12:15 PM 64.4 °F 55.4 °F 73% 30.07 in 5.0 mi NW 5.8 mph - N/A   Haze
12:35 PM 66.2 °F 55.4 °F 68% 30.06 in 8.0 mi WNW 4.6 mph - N/A   Clear
12:55 PM 66.2 °F 55.4 °F 68% 30.05 in 9.0 mi North 3.5 mph - N/A   Clear
1:15 PM 66.2 °F 55.4 °F 68% 30.04 in 10.0 mi WNW 3.5 mph - N/A   Clear
1:35 PM 68.0 °F 55.4 °F 64% 30.04 in 10.0 mi NNW 3.5 mph - N/A   Clear
1:55 PM 66.2 °F 55.4 °F 68% 30.03 in 10.0 mi WNW 3.5 mph - N/A   Clear
2:15 PM 68.0 °F 55.4 °F 64% 30.03 in 10.0 mi NNW 3.5 mph - N/A   Clear
2:35 PM 68.0 °F 55.4 °F 64% 30.03 in 10.0 mi Calm Calm - N/A   Clear
2:55 PM 68.0 °F 55.4 °F 64% 30.03 in 10.0 mi Calm Calm - N/A   Clear
3:15 PM 68.0 °F 55.4 °F 64% 30.03 in 10.0 mi Calm Calm - N/A   Clear
3:35 PM 69.8 °F 57.2 °F 64% 30.03 in 10.0 mi Calm Calm - N/A   Clear
3:55 PM 68.0 °F 57.2 °F 68% 30.03 in 10.0 mi Calm Calm - N/A   Clear
4:15 PM 68.0 °F 57.2 °F 68% 30.04 in 10.0 mi Calm Calm - N/A   Clear
4:35 PM 66.2 °F 59.0 °F 78% 30.05 in 9.0 mi Calm Calm - N/A   Clear
4:55 PM 64.4 °F 59.0 °F 83% 30.05 in 9.0 mi Calm Calm - N/A   Clear
5:15 PM 62.6 °F 59.0 °F 88% 30.05 in 8.0 mi Calm Calm - N/A   Clear
5:35 PM 62.6 °F 59.0 °F 88% 30.06 in 8.0 mi South 3.5 mph - N/A   Clear
5:55 PM 60.8 °F 57.2 °F 88% 30.06 in 7.0 mi Calm Calm - N/A   Clear
6:15 PM 59.0 °F 57.2 °F 94% 30.07 in 7.0 mi Calm Calm - N/A   Clear
6:35 PM 59.0 °F 57.2 °F 94% 30.08 in 7.0 mi Calm Calm - N/A   Clear
6:55 PM 57.2 °F 57.2 °F 100% 30.08 in 5.0 mi South 3.5 mph - N/A   Clear
7:15 PM 59.0 °F 57.2 °F 94% 30.09 in 5.0 mi Calm Calm - N/A   Clear
7:35 PM 57.2 °F 57.2 °F 100% 30.09 in 5.0 mi Calm Calm - N/A   Scattered Clouds
7:55 PM 57.2 °F 57.2 °F 100% 30.09 in 5.0 mi Calm Calm - N/A   Mostly Cloudy
8:15 PM 57.2 °F 57.2 °F 100% 30.09 in 5.0 mi Calm Calm - N/A   Overcast
8:35 PM 57.2 °F 57.2 °F 100% 30.09 in 5.0 mi Calm Calm - N/A   Overcast
8:55 PM 57.2 °F 55.4 °F 94% 30.09 in 4.0 mi Calm Calm - N/A   Scattered Clouds
9:15 PM 55.4 °F 55.4 °F 100% 30.10 in 3.0 mi Calm Calm - N/A   Clear
9:35 PM 55.4 °F 55.4 °F 100% 30.09 in 4.0 mi Calm Calm - N/A   Clear
9:55 PM 55.4 °F 55.4 °F 100% 30.10 in 2.5 mi Calm Calm - N/A   Clear
10:15 PM 55.4 °F 55.4 °F 100% 30.10 in 0.8 mi SSW 3.5 mph - N/A   Mist
10:35 PM 55.4 °F 55.4 °F 100% 30.10 in 2.5 mi Calm Calm - N/A   Clear
10:55 PM 55.4 °F 55.4 °F 100% 30.10 in 1.8 mi Calm Calm - N/A   Clear
11:15 PM 53.6 °F 53.6 °F 100% 30.10 in 1.8 mi Calm Calm - N/A   Clear
11:35 PM 53.6 °F 53.6 °F 100% 30.09 in 5.0 mi Calm Calm - N/A   Clear
11:55 PM 53.6 °F 53.6 °F 100% 30.09 in 5.0 mi Calm Calm - N/A   Clear